When you browse on this site, cookies collect data to enhance your experience and personalize the content and advertising you see.
Visit our Privacy Policy to learn more. By continuing to use the site, you agree to this use of cookies and data.
  • In Hungary
  • List of Countries
  • For 7 days
  • Water Temperature
  • Satellite Maps
  • Weather Map
  • News
  • Weather Widgets
  • user-avatar
    Login

    Hourly Weather Police

    Today, 26 June, Wednesday

    Time Temperature Precipitation Wind Pressure Humidity
    00:00 +24°C° 0 mm 2 mps 764 mmHg 90%
    01:00 +23°C° 0 mm 2 mps 764 mmHg 89%
    02:00 +23°C° 0 mm 2 mps 764 mmHg 86%
    03:00 +23°C° 0 mm 2 mps 763 mmHg 83%
    04:00 +23°C° 0 mm 2 mps 763 mmHg 79%
    05:00 +24°C° 0 mm 2 mps 763 mmHg 77%
    06:00 +26°C° 0 mm 2 mps 763 mmHg 76%
    07:00 +27°C° 0 mm 2 mps 763 mmHg 72%
    08:00 +29°C° 0 mm 2 mps 763 mmHg 65%
    09:00 +31°C° 0 mm 2 mps 763 mmHg 59%
    10:00 +34°C° 0 mm 2 mps 762 mmHg 52%
    11:00 +35°C° 0 mm 3 mps 762 mmHg 49%
    12:00 +36°C° 0 mm 4 mps 762 mmHg 46%
    13:00 +36°C° 0 mm 5 mps 762 mmHg 43%
    14:00 +36°C° 0 mm 5 mps 762 mmHg 47%
    15:00 +35°C° 0 mm 6 mps 762 mmHg 51%
    16:00 +34°C° 0 mm 6 mps 762 mmHg 55%
    17:00 +32°C° 0.1 mm 6 mps 762 mmHg 60%
    18:00 +29°C° 0.1 mm 6 mps 762 mmHg 66%
    19:00 +27°C° 0.1 mm 6 mps 762 mmHg 72%
    20:00 +26°C° 0 mm 6 mps 763 mmHg 76%
    21:00 +23°C° 0 mm 5 mps 763 mmHg 81%
    22:00 +21°C° 0 mm 5 mps 763 mmHg 86%
    23:00 +20°C° 0 mm 5 mps 764 mmHg 84%

    Tomorrow, 27 June, Thursday

    Time Temperature Precipitation Wind Pressure Humidity
    00:00 +19°C° 0 mm 6 mps 764 mmHg 82%
    01:00 +17°C° 0 mm 6 mps 764 mmHg 81%
    02:00 +16°C° 0 mm 6 mps 764 mmHg 80%
    03:00 +14°C° 0 mm 6 mps 764 mmHg 79%
    04:00 +13°C° 0 mm 5 mps 764 mmHg 78%
    05:00 +14°C° 0 mm 6 mps 764 mmHg 76%
    06:00 +15°C° 0 mm 6 mps 764 mmHg 73%
    07:00 +15°C° 0 mm 6 mps 764 mmHg 70%
    08:00 +16°C° 0 mm 6 mps 764 mmHg 68%
    09:00 +18°C° 0 mm 7 mps 764 mmHg 65%
    10:00 +20°C° 0 mm 7 mps 764 mmHg 62%
    11:00 +20°C° 0 mm 7 mps 764 mmHg 63%
    12:00 +21°C° 0 mm 7 mps 764 mmHg 63%
    13:00 +21°C° 0 mm 7 mps 764 mmHg 63%
    14:00 +21°C° 0 mm 6 mps 764 mmHg 64%
    15:00 +21°C° 0 mm 6 mps 764 mmHg 65%
    16:00 +21°C° 0 mm 6 mps 764 mmHg 67%
    17:00 +21°C° 0 mm 5 mps 764 mmHg 70%
    18:00 +20°C° 0 mm 4 mps 764 mmHg 73%
    19:00 +20°C° 0 mm 4 mps 764 mmHg 76%
    20:00 +19°C° 0 mm 4 mps 764 mmHg 82%
    21:00 +18°C° 0 mm 4 mps 765 mmHg 88%
    22:00 +17°C° 0 mm 4 mps 765 mmHg 94%
    23:00 +16°C° 0 mm 3 mps 765 mmHg 95%

    Day after tomorrow, 28 June, Friday

    Time Temperature Precipitation Wind Pressure Humidity
    00:00 +16°C° 0 mm 3 mps 765 mmHg 96%
    01:00 +14°C° 0 mm 3 mps 765 mmHg 97%
    02:00 +14°C° 0 mm 3 mps 765 mmHg 97%
    03:00 +14°C° 0 mm 3 mps 765 mmHg 97%
    04:00 +14°C° 0 mm 4 mps 765 mmHg 98%
    05:00 +15°C° 0 mm 4 mps 765 mmHg 92%
    06:00 +17°C° 0 mm 3 mps 765 mmHg 87%
    07:00 +19°C° 0 mm 3 mps 765 mmHg 81%
    08:00 +20°C° 0 mm 4 mps 765 mmHg 69%
    09:00 +22°C° 0 mm 4 mps 765 mmHg 57%
    10:00 +23°C° 0 mm 4 mps 766 mmHg 45%
    11:00 +25°C° 0 mm 4 mps 766 mmHg 42%
    12:00 +25°C° 0 mm 4 mps 766 mmHg 40%
    13:00 +25°C° 0 mm 4 mps 766 mmHg 37%
    14:00 +25°C° 0 mm 3 mps 766 mmHg 38%
    15:00 +25°C° 0 mm 3 mps 766 mmHg 39%
    16:00 +25°C° 0 mm 3 mps 765 mmHg 40%
    17:00 +24°C° 0 mm 2 mps 765 mmHg 46%
    18:00 +23°C° 0 mm 2 mps 765 mmHg 53%
    19:00 +22°C° 0 mm 1 mps 765 mmHg 60%
    20:00 +20°C° 0 mm 1 mps 765 mmHg 64%
    21:00 +18°C° 0 mm 1 mps 765 mmHg 69%
    22:00 +14°C° 0 mm 0 mps 766 mmHg 73%
    23:00 +15°C° 0 mm 1 mps 766 mmHg 74%

    29 June, Saturday

    Time Temperature Precipitation Wind Pressure Humidity
    00:00 +15°C° 0 mm 1 mps 765 mmHg 75%
    01:00 +14°C° 0 mm 1 mps 765 mmHg 76%
    02:00 +14°C° 0 mm 1 mps 765 mmHg 76%
    03:00 +14°C° 0 mm 1 mps 765 mmHg 77%
    04:00 +14°C° 0 mm 2 mps 765 mmHg 77%
    05:00 +16°C° 0 mm 2 mps 765 mmHg 73%
    06:00 +17°C° 0 mm 2 mps 765 mmHg 69%
    07:00 +19°C° 0 mm 2 mps 765 mmHg 66%
    08:00 +21°C° 0 mm 2 mps 765 mmHg 62%
    09:00 +24°C° 0 mm 2 mps 765 mmHg 58%
    10:00 +25°C° 0 mm 3 mps 765 mmHg 54%
    11:00 +26°C° 0 mm 3 mps 764 mmHg 51%
    12:00 +27°C° 0 mm 3 mps 764 mmHg 49%
    13:00 +28°C° 0 mm 3 mps 763 mmHg 46%
    14:00 +28°C° 0 mm 3 mps 763 mmHg 46%
    15:00 +28°C° 0 mm 3 mps 763 mmHg 46%
    16:00 +29°C° 0 mm 3 mps 762 mmHg 46%
    17:00 +28°C° 0 mm 2 mps 763 mmHg 51%
    18:00 +27°C° 0 mm 1 mps 762 mmHg 57%
    19:00 +26°C° 0 mm 1 mps 762 mmHg 64%
    20:00 +24°C° 0 mm 1 mps 762 mmHg 68%
    21:00 +22°C° 0 mm 1 mps 762 mmHg 72%
    22:00 +20°C° 0 mm 1 mps 762 mmHg 77%
    23:00 +20°C° 0 mm 1 mps 762 mmHg 76%

    30 June, Sunday

    Time Temperature Precipitation Wind Pressure Humidity
    00:00 +19°C° 0 mm 2 mps 762 mmHg 76%
    01:00 +18°C° 0 mm 2 mps 762 mmHg 75%
    02:00 +18°C° 0 mm 2 mps 761 mmHg 72%
    03:00 +17°C° 0 mm 3 mps 761 mmHg 69%
    04:00 +17°C° 0 mm 3 mps 761 mmHg 66%
    05:00 +19°C° 0 mm 3 mps 760 mmHg 64%
    06:00 +20°C° 0 mm 4 mps 760 mmHg 62%
    07:00 +22°C° 0 mm 4 mps 760 mmHg 60%
    08:00 +25°C° 0 mm 5 mps 760 mmHg 57%
    09:00 +27°C° 0 mm 5 mps 759 mmHg 54%
    10:00 +28°C° 0 mm 5 mps 759 mmHg 51%
    11:00 +30°C° 0 mm 6 mps 759 mmHg 48%
    12:00 +32°C° 0 mm 6 mps 758 mmHg 44%
    13:00 +33°C° 0 mm 6 mps 758 mmHg 41%
    14:00 +33°C° 0 mm 6 mps 757 mmHg 41%
    15:00 +34°C° 0 mm 5 mps 757 mmHg 41%
    16:00 +34°C° 0 mm 5 mps 757 mmHg 41%
    17:00 +32°C° 0 mm 5 mps 757 mmHg 50%
    18:00 +29°C° 0 mm 5 mps 757 mmHg 58%
    19:00 +28°C° 0 mm 5 mps 757 mmHg 66%
    20:00 +26°C° 0 mm 5 mps 757 mmHg 67%
    21:00 +22°C° 0 mm 5 mps 758 mmHg 69%
    22:00 +20°C° 0 mm 4 mps 758 mmHg 70%
    23:00 +19°C° 0 mm 4 mps 759 mmHg 73%

    1 July, Monday

    Time Temperature Precipitation Wind Pressure Humidity
    00:00 +17°C° 0 mm 4 mps 759 mmHg 77%
    01:00 +16°C° 0 mm 3 mps 759 mmHg 81%
    02:00 +14°C° 0 mm 3 mps 759 mmHg 86%
    03:00 +13°C° 0 mm 3 mps 759 mmHg 90%
    04:00 +13°C° 0 mm 3 mps 759 mmHg 94%
    05:00 +14°C° 0 mm 3 mps 759 mmHg 89%
    06:00 +15°C° 0 mm 4 mps 759 mmHg 84%
    07:00 +18°C° 0 mm 4 mps 760 mmHg 79%
    08:00 +19°C° 0 mm 4 mps 759 mmHg 73%
    09:00 +20°C° 0 mm 4 mps 759 mmHg 66%
    10:00 +22°C° 0 mm 4 mps 759 mmHg 60%
    11:00 +23°C° 0 mm 4 mps 759 mmHg 56%
    12:00 +25°C° 0 mm 4 mps 759 mmHg 53%
    13:00 +26°C° 0 mm 4 mps 758 mmHg 49%
    14:00 +25°C° 0 mm 4 mps 758 mmHg 50%
    15:00 +25°C° 0 mm 4 mps 757 mmHg 52%
    16:00 +25°C° 0 mm 5 mps 757 mmHg 53%
    17:00 +23°C° 0.6 mm 4 mps 757 mmHg 63%
    18:00 +21°C° 0.6 mm 4 mps 757 mmHg 74%
    19:00 +19°C° 0.6 mm 4 mps 757 mmHg 84%
    20:00 +18°C° 0.1 mm 4 mps 757 mmHg 86%
    21:00 +17°C° 0.1 mm 4 mps 757 mmHg 88%
    22:00 +15°C° 0.1 mm 5 mps 758 mmHg 89%
    23:00 +14°C° 0 mm 5 mps 758 mmHg 88%
    Show more